Showing default

HYPSO-2, 60531

Orbit data source: Space-Track

HYPSO-2, 60531 is a payload satellite owned by NTNU (NO) in SSO that was launched on Fri, 16 Aug 2024 UTC via an FALCON 9 launch vehicle from the Air Force Western Test Range (AFWTR). Payload-class satellites include a variety of spacecraft equipped with specific instruments for various scientific and technological missions. These include communications satellites like Starlink; space stations such as the ISS; scientific satellites like the Hubble; Earth observation satellites from companies like Planet Labs, Umbra, and HawkEye 360; GPS; miniature CubeSats for education and research; and military/defense satellites.

Loading next visibility...
Identifier
60531, 2024-149BR
Orbit
SSO
Country
Flag of NONO / NOR
Related business
Manufacturer
NanoAvionics
Mission
Operational Civil Imaging
Bus & Motor
CUBESAT 6U, Unknown motor
Mass
~10 kg wet, ~10 kg dry
Launch date (UTC)
2024-08-16 (1 year ago)
Launch vehicle
FALCON 9
Launch site
Air Force Western Test Range (AFWTR)
Object type
Payload
Rocket body
Debris
Shape & HBR
Box + 2 Pan, 0.1 m
Radar Cross Section
0.080 m², Medium (>0.1 m² and < 1m²)

Expand to show TLE details & history
Last TLE update: 22 hours ago

TLE from 22 hours ago
0 HYPSO-2
1 60531U 24149BR  26034.17720850  .00003574  00000-0  30768-3 0  9996
2 60531  97.6961 112.4017 0002323  80.8173 279.3312 14.97994249 79986
Epoch: 2026-02-03T04:15Z
TLE epoch observation values (Epoch: 2026-02-03T04:15:10.814Z)
Latitude
-0.00002°
Longitude
-84.75524°
Altitude
575.885 km
Speed
7.573 km/s
True Right ascension
07h 29m 36s
True Declination
0° 00' 00"
Sunlit
Object was in full shadow at epoch
Visualization orbit readout
Latitude
Unknown
Longitude
Unknown
Altitude
Unknown
Speed
Unknown
Apparent Right ascension
Unknown
Apparent Declination
Unknown
Sunlit
N/A
Visualization observer readout
Local Sidereal Time
04:31:45
Azimuth
Unknown
Elevation
Unknown
Doppler factor
Unknown
Orbital elements
Apogee altitude
571.716 km
Perigee altitude
568.488 km
Semi-major axis
6,948.239 km
Eccentricity
0.00023
Inclination
97.6961°
RAAN
112.4017°
Arg. of periapsis
80.8173°
True anomaly
279.30493°
Mean anomaly
279.3312°
Eccentric anomaly
279.31807°
Mean motion
3.74741 °/min
Orbital period
96.07 mins
BSTAR
0.00030768
Loading maneuver chart data...
Computing Atmospheric mass density...
Loading historical data...
Loading historical data...
Loading historical data...
Loading historical data...
Loading historical data...
Loading historical data...
Loading historical data...

Documentation

Showing up to 5 results
|